Hourly Data Report for April 01, 2016

All times are specified in Local Standard Time (LST). Add 1 hour to adjust for Daylight Saving Time where and when it is observed.

EMERSON AUTO
MANITOBA

49°00'00.000" N
97°14'15.000" W
242.00 m
5020881
71560
WEX

Download Data

Hourly Data (April 2016)
Hourly Data Report for April 1, 2016
Temp Definition
°C
Dew Point Temp Definition
°C
Rel Hum Definition
%
Wind Dir Definition
10's deg

Wind Spd Definition
km/h
Visibility Definition
km
Stn Press Definition
kPa
Hmdx Definition


Wind Chill Definition


Weather Definition


TIME
00:00 -3.5 -9.1 65 35 39   98.42   -12 LegendNANA
01:00 -4.4 -10.9 60 36 36   98.51   -13 LegendNANA
02:00 -4.9 -10.9 63 35 32   98.53   -13 LegendNANA
03:00 -5.6 -9.9 72 35 31   98.57   -14 LegendNANA
04:00 -6.1 -10.7 70 34 28   98.64   -14 LegendNANA
05:00 -6.5 -11.1 70 34 28   98.71   -15 LegendNANA
06:00 -6.8 -11.3 70 34 27   98.74   -15 LegendNANA
07:00 -6.8 -10.8 73 33 27   98.80   -15 LegendNANA
08:00 -5.9 -12.6 59 34 30   98.85   -14 LegendNANA
09:00 -5.0 -13.1 53 34 27   98.83   -13 LegendNANA
10:00 -4.3 -12.0 55 33 28   98.83   -12 LegendNANA
11:00 -3.9 -11.6 55 32 25   98.78   -11 LegendNANA
12:00 -2.6 -13.1 44 31 28   98.68   -10 LegendNANA
13:00 -1.6 -11.8 45 30 24   98.54   -8 LegendNANA
14:00 -0.2 -9.6 49 31 25   98.41   -6 LegendNANA
15:00 0.4 -9.9 46 27 24   98.21     LegendNANA
16:00 -0.1 -8.0 55 27 24   98.05   -6 LegendNANA
17:00 -0.1 -4.4 72 28 31   97.91   -7 LegendNANA
18:00 -1.7 -2.3 95 24 24   97.77   -8 LegendNANA
19:00 -1.4 -2.0 96 22 19   97.59   -7 LegendNANA
20:00 0.0 -2.4 84 30 24   97.58   -6 LegendNANA
21:00 -1.7 -4.2 83 33 54   97.66   -11 LegendNANA
22:00 -2.6 -3.9 91 33 54   97.77   -12 LegendNANA
23:00 -3.7 -5.4 88 36 44   97.94   -13 LegendNANA

Notes on Data Quality.

Legend

  • E = Estimated
  • M = Missing
  • NA = Not Available
  • ‡ = Partner data that is not subject to review by the National Climate Archives
Date modified: